Regional Weather Roundup
Issued by NWS

Home | Current Version | Previous Version | Text Only | Print | Product List | Glossary Off
Versions: 1 2 3 4 5 6 7 8 9 10 11 12 13 14 15 16 17 18 19 20 21 22 23 24 25 26 27 28 29 30 31 32 33 34 35 36 37 38 39 40 41 42 43 44 45 46 47 48 49 50

592
ASUS44 KLIX 020607
RWRLA
LOUISIANA WEATHER ROUNDUP
NATIONAL WEATHER SERVICE NEW ORLEANS LA
100 AM CDT THU APR 02 2015

NOTE: "FAIR" INDICATES FEW OR NO CLOUDS BELOW 12,000 FEET WITH NO
      SIGNIFICANT WEATHER AND/OR OBSTRUCTIONS TO VISIBILITY.
      SKY/WX - SKY CONDITION AND SIGNIFICANT WEATHER.
      TMP - AIR TEMPERATURE.    DP   - DEWPOINT TEMPERATURE.
      RH  - RELATIVE HUMIDITY.  PRES - PRESSURE.
      HX  - HEAT INDEX.         WCI  - WIND CHILL INDEX.

*  THESE STATIONS ARE NOT NWS OR FAA STATIONS AND ARE NOT UNDER
   NWS QUALITY CONTROL.

LAZ040-048-061>063-065-066-069-020700-
SOUTHEAST LOUISIANA

CITY           SKY/WX    TMP DP  RH WIND       PRES   REMARKS
N.O. AUDUBON   NOT AVBL
N.O. INTL ARPT MOCLDY    69  66  90 SE3       30.04F
6HR MIN TEMP:  69; 6HR MAX TEMP:  75;

N.O. LAKEFRONT MOCLDY    73  67  81 S7        30.05F
6HR MIN TEMP:  73; 6HR MAX TEMP:  77;

SLIDELL        CLOUDY    71  69  93 S3        30.05S
6HR MIN TEMP:  71; 6HR MAX TEMP:  76;

BATON ROUGE    LGT RAIN  71  66  84 S10       30.03F
6HR MIN TEMP:  70; 6HR MAX TEMP:  75; 6HR PCP: TRACE;

BOOTHVILLE     MOCLDY    73  70  90 SE9       30.06F
6HR MIN TEMP:  71; 6HR MAX TEMP:  73; 6HR PCP: TRACE;

BELLE CHASSE   PTCLDY    65  63  93 NE5       30.04F
6HR MIN TEMP:  65; 6HR MAX TEMP:  73;

BOGALUSA*        N/A     71  66  85 SE6       30.07F
6HR MIN TEMP:  71; 6HR MAX TEMP:  78;

GALLIANO*      PTCLDY    66  64  94 CALM      30.05F
6HR MIN TEMP:  66; 6HR MAX TEMP:  75;

NEW ROADS*     FAIR      71  65  83 S3        30.03S
6HR MIN TEMP:  70; 6HR MAX TEMP:  75;

GONZALES*      FAIR      68  68 100 CALM      30.04S
6HR MIN TEMP:  68; 6HR MAX TEMP:  76;

HAMMOND*       CLOUDY    70  64  83 CALM      30.06F
HOUMA*         CLEAR     71  67  88 S5        30.04F
6HR MIN TEMP:  70; 6HR MAX TEMP:  73;

PORT FOURCHON* PTCLDY    73  70  88 SE5       30.08F

$$

LAZ041-044-053-054-020700-
SOUTHWEST LOUISIANA

CITY           SKY/WX    TMP DP  RH WIND       PRES   REMARKS
LAKE CHARLES   PTCLDY    70  68  93 S7        30.00F
6HR MIN TEMP:  70; 6HR MAX TEMP:  74;

LAFAYETTE      PTCLDY    71  67  87 S8        30.03S
6HR MIN TEMP:  71; 6HR MAX TEMP:  75;

PATTERSON      MOCLDY    70  64  83 S5        30.06S
6HR MIN TEMP:  68; 6HR MAX TEMP:  73;

SALT POINT       N/A     68  67  96 SE3       30.03F
6HR MIN TEMP:  68; 6HR MAX TEMP:  72;

NEW IBERIA     PTCLDY    67  65  93 SE5       30.04S
6HR MIN TEMP:  67; 6HR MAX TEMP:  74;

CHENAULT AIRPK PTCLDY    67  66  99 SE5       30.01F
6HR MIN TEMP:  66; 6HR MAX TEMP:  74;


$$

LAZ027-028-020700-
CENTRAL LOUISIANA

CITY           SKY/WX    TMP DP  RH WIND       PRES   REMARKS
FORT POLK      CLOUDY    69  66  92 S12       29.99S
6HR MIN TEMP:  69; 6HR MAX TEMP:  71;

ALEXANDRIA INT CLOUDY    70  65  84 S9        29.98F
6HR MIN TEMP:  70; 6HR MAX TEMP:  75; 6HR PCP: TRACE;

ALEXANDRIA     CLOUDY    71  66  84 S8        30.00F
6HR MIN TEMP:  71; 6HR MAX TEMP:  74;


$$

LAZ001-002-020700-
NORTHWEST LOUISIANA

CITY           SKY/WX    TMP DP  RH WIND       PRES   REMARKS
SHREVEPORT     MOCLDY    70  65  84 S12       29.93S
6HR MIN TEMP:  70; 6HR MAX TEMP:  78;

BARKSDALE AFB  PTCLDY    69  65  87 S12       29.93S
6HR MIN TEMP:  69; 6HR MAX TEMP:  76;

DTN SHREVEPORT PTCLDY    69  64  84 S7        29.94R
6HR MIN TEMP:  69; 6HR MAX TEMP:  78;


$$

LAZ014-016-020700-
NORTHEAST LOUISIANA

CITY           SKY/WX    TMP DP  RH WIND       PRES   REMARKS
MONROE         MOCLDY    70  64  81 S8        29.98S
6HR MIN TEMP:  68; 6HR MAX TEMP:  78;

TALLULAH       CLOUDY    71  60  68 S6        30.01S
6HR MIN TEMP:  69; 6HR MAX TEMP:  78;


$$




USA.gov is the U.S. government's official web portal to all federal, state and local government web resources and services.